Wind_Speed
103 104 104 104 103 103 101 98 96 93 90 88 85 83 81 79 78 76 75 73 72 71 69 68 67 65 64 63 61 60 59 57 56 55 54 53 52 51 50 50 49 48 47 46 45 45 44 44 44 45 45 45 45 45 45 45 45 45 45 45 45 43 42 40 39 37 36 35 34 34 33 32 31 31 30 30 30 31 33 35 38 41 45 49 53 57
104 104 104 103 102 100 98 95 92 90 87 85 83 81 79 78 77 76 74 73 71 70 68 67 66 65 64 62 61 59 58 57 56 54 54 53 52 51 51 50 49 48 47 46 45 45 45 44 44 44 45 45 45 45 45 45 45 45 45 45 45 44 44 43 41 40 39 38 37 36 36 35 35 34 34 33 33 33 34 35 36 38 41 44 48 52
104 104 103 101 99 98 95 92 89 87 84 83 81 79 78 77 76 75 73 72 70 69 67 66 65 64 63 62 60 59 58 56 55 54 54 53 52 52 51 50 50 49 48 47 46 46 45 45 45 45 45 45 45 45 45 45 45 45 45 44 44 44 44 44 43 43 42 41 40 39 39 38 38 38 37 37 36 36 36 37 37 38 39 42 44 47
103 103 101 99 97 94 92 89 86 84 82 80 79 78 77 76 75 74 73 71 70 68 67 65 64 64 63 61 60 59 58 56 56 55 54 53 53 53 52 52 51 50 49 48 47 47 46 46 46 46 46 46 46 46 46 46 46 45 45 45 45 44 44 44 44 44 44 43 43 42 42 42 41 41 41 40 40 40 40 40 40 40 41 42 43 45
102 100 98 96 94 91 88 86 83 81 80 78 77 77 76 75 74 73 72 70 69 67 66 65 64 63 62 61 60 58 57 57 56 55 54 54 54 53 53 53 52 51 51 50 49 48 48 47 48 48 48 48 47 47 47 47 46 46 46 45 45 45 45 45 45 45 45 45 45 45 45 45 45 44 44 44 44 43 43 43 43 43 43 44 44 45
99 97 95 92 90 87 85 83 81 79 78 77 76 76 75 74 73 72 71 69 68 66 65 64 63 62 61 60 59 58 57 56 56 55 55 54 54 54 54 54 53 53 52 51 50 49 49 49 49 49 49 49 49 48 48 47 47 47 46 46 46 45 45 45 45 46 46 47 47 47 48 48 48 48 48 48 48 47 47 47 47 46 47 47 47 48
96 94 91 89 86 84 82 80 78 77 76 76 75 75 74 73 72 71 70 68 67 65 64 63 62 61 60 60 58 58 57 56 55 55 54 54 54 54 55 54 54 54 53 52 51 51 50 50 50 50 50 50 50 50 49 49 48 47 47 47 46 46 46 46 46 47 47 48 48 49 49 50 51 51 51 51 51 51 51 51 50 50 50 50 50 50
93 90 88 85 83 81 79 78 77 76 75 75 75 74 74 73 71 70 69 67 66 64 63 63 62 61 60 59 58 57 56 56 55 55 54 54 55 55 55 55 55 54 54 53 52 52 51 51 51 52 52 52 52 51 51 50 49 48 48 47 47 47 47 47 47 48 48 49 50 50 51 52 53 53 54 54 55 55 55 55 55 54 54 54 54 54
89 87 84 82 80 78 77 76 75 75 74 74 74 73 73 72 70 69 67 66 65 63 63 62 61 60 59 58 58 57 56 55 55 55 54 55 55 55 56 56 55 55 54 54 53 53 53 53 53 53 53 53 53 52 52 51 50 50 49 48 48 48 48 48 48 49 50 50 51 52 53 54 55 55 56 57 58 58 59 59 59 58 58 58 57 57
85 83 81 79 78 76 75 75 74 74 73 73 73 72 71 71 69 68 67 65 64 63 62 61 60 60 59 58 57 56 56 55 55 54 54 55 55 56 56 56 56 56 55 55 54 54 54 54 54 54 54 54 54 54 53 52 52 51 50 50 49 49 49 49 50 50 51 52 53 54 55 56 57 57 58 59 60 61 61 62 62 62 62 62 61 61
82 80 78 77 76 74 74 74 74 73 73 73 72 71 70 69 67 66 65 64 63 62 61 60 59 59 58 58 57 56 56 55 55 55 55 55 56 56 56 57 56 56 56 55 55 55 55 55 55 56 56 55 55 55 55 54 53 53 52 52 52 51 51 51 52 52 53 53 54 55 57 58 59 60 61 62 62 63 64 65 65 65 65 65 65 64
79 77 76 75 74 74 73 73 73 73 72 72 71 70 69 67 66 64 64 63 62 61 60 60 59 58 57 57 57 56 56 55 55 55 55 56 56 56 57 57 57 56 56 56 56 56 56 57 57 57 57 57 56 56 56 56 55 55 54 54 54 54 54 54 54 54 55 55 56 57 58 59 61 62 63 64 65 66 66 67 68 68 68 69 68 68
76 75 74 73 73 73 73 73 72 72 72 71 70 69 68 66 64 63 62 62 61 60 60 59 58 58 57 56 56 56 56 55 55 55 56 56 56 57 57 57 57 57 57 57 57 57 57 58 58 58 58 58 58 57 57 57 57 57 57 57 56 56 56 56 56 57 57 58 59 59 60 61 62 63 65 66 67 68 69 69 70 70 71 71 71 71
74 73 73 73 72 72 72 72 72 71 71 70 68 67 66 64 63 62 61 61 60 59 59 58 58 57 57 56 56 56 56 56 56 56 56 56 57 57 57 58 58 57 58 58 58 58 58 59 59 59 59 59 59 59 59 59 59 59 59 59 59 59 59 59 59 59 60 60 61 62 62 63 64 65 66 67 68 69 70 71 72 72 73 73 74 74
72 72 72 72 72 72 71 71 71 70 69 68 67 65 64 63 62 61 60 60 59 58 58 57 57 57 56 56 56 56 56 56 56 56 57 57 57 57 57 58 58 58 58 59 59 59 59 60 60 60 60 60 60 61 61 61 61 61 61 61 61 61 61 61 61 62 62 63 63 64 64 65 66 66 67 68 69 70 71 72 73 73 74 75 75 75
71 71 71 71 71 71 71 70 69 69 68 66 65 64 63 62 61 60 59 59 58 58 57 57 57 57 56 56 56 56 56 56 57 57 57 57 57 57 57 58 59 59 59 59 60 60 61 61 61 61 62 62 62 62 63 63 63 63 63 63 63 63 63 63 64 64 65 65 66 66 66 67 67 68 68 69 70 70 71 72 73 73 74 75 76 76
70 70 70 70 70 70 69 68 68 67 66 65 63 62 61 60 60 59 58 58 58 57 57 56 56 56 56 57 56 56 56 56 57 57 57 57 57 57 57 58 59 59 60 60 61 61 62 62 62 63 63 63 64 64 65 65 65 65 65 65 65 65 65 65 66 66 67 67 68 68 68 68 68 69 69 69 70 70 71 71 72 73 73 74 75 75
70 69 69 69 69 69 68 67 66 65 64 63 62 61 60 59 58 58 58 57 57 57 57 56 56 56 56 57 57 56 56 56 56 57 57 57 57 57 57 58 59 60 61 61 62 62 63 63 64 64 65 65 65 66 66 66 66 66 66 66 66 66 66 67 68 68 69 69 69 69 69 69 69 69 69 69 70 70 70 70 71 71 72 72 73 74
69 68 68 68 67 67 66 65 64 63 62 61 61 60 59 58 58 57 57 57 57 56 56 56 56 56 56 56 57 56 56 56 56 56 57 57 57 57 58 58 59 60 61 62 63 63 64 64 65 65 66 66 67 67 67 68 68 68 68 67 67 67 68 69 69 70 70 70 70 70 70 69 69 69 69 69 69 69 69 69 69 69 70 70 71 71
68 67 67 66 66 65 64 64 63 62 61 60 59 59 58 58 57 57 57 56 56 56 56 56 56 56 56 56 56 56 56 56 56 56 57 57 57 58 58 59 60 61 62 63 64 65 65 66 66 66 67 67 68 68 69 69 69 69 69 69 69 69 69 70 71 71 71 70 70 70 69 69 68 68 68 67 67 67 67 67 67 67 67 68 68 68
66 66 65 64 64 63 63 62 61 60 59 59 58 58 57 57 57 57 56 56 56 56 56 56 56 55 55 55 56 56 56 56 56 57 57 57 58 58 59 59 61 62 63 64 65 66 66 67 67 67 68 68 69 69 69 70 70 70 70 70 70 70 71 71 71 71 71 70 70 69 68 68 67 66 66 65 65 65 64 64 64 64 65 65 65 66
65 64 63 63 62 61 61 60 60 59 58 58 57 57 56 56 56 56 56 56 55 55 55 55 55 55 54 55 55 55 55 56 56 57 58 58 59 59 60 60 62 63 64 65 66 67 67 67 68 68 68 69 69 70 70 71 71 71 71 71 71 71 72 72 72 71 71 70 69 68 67 66 65 64 64 63 63 63 62 62 62 62 62 63 63 63
63 62 62 61 60 60 59 59 58 58 57 56 56 56 55 55 55 55 55 55 54 54 54 54 54 54 54 54 54 55 55 56 56 57 58 59 60 61 61 62 63 64 65 66 67 67 68 68 69 69 69 70 70 71 71 72 72 72 72 72 72 72 72 72 72 71 70 69 67 66 65 64 63 63 62 61 61 61 60 60 60 60 60 61 61 61
61 60 60 59 59 58 58 57 57 56 56 55 55 54 54 54 54 53 53 53 53 53 53 53 53 53 53 53 54 55 55 56 57 58 59 60 61 62 62 63 64 65 66 67 67 68 69 69 70 70 70 71 71 72 72 72 72 72 72 72 72 72 72 71 71 70 68 67 66 65 63 62 61 61 60 60 59 59 59 58 59 59 59 59 59 60
59 58 58 57 57 56 56 55 55 55 54 54 53 53 53 52 52 52 52 52 52 52 52 52 52 53 53 53 54 55 56 57 58 59 60 61 62 63 63 64 64 66 67 67 68 69 70 70 71 71 71 72 72 72 73 73 73 73 73 72 72 72 71 71 69 68 67 65 64 63 62 61 60 59 59 58 58 57 57 57 57 57 58 58 58 59
56 56 56 55 55 54 54 53 53 53 52 52 52 51 51 51 50 50 50 50 51 51 51 52 52 53 53 54 55 56 56 57 58 59 61 62 63 64 64 65 65 66 67 68 69 70 70 71 72 72 72 73 73 73 74 74 73 73 73 72 72 71 70 69 68 67 65 64 62 61 60 59 58 58 57 57 56 56 56 56 57 57 57 58 58 59
54 54 53 53 52 52 51 51 51 51 50 50 50 50 49 49 49 50 50 50 50 51 51 52 53 53 54 55 55 56 57 58 59 60 61 62 64 65 66 66 66 67 68 69 70 70 71 72 73 73 73 74 74 74 74 74 73 73 72 71 71 70 69 68 66 65 63 62 61 60 59 58 57 56 56 56 56 56 56 56 56 56 57 57 58 59
51 51 51 50 50 49 49 49 49 49 49 49 49 49 48 49 49 49 50 50 50 51 52 53 53 54 55 56 56 57 58 59 60 61 62 63 65 66 67 67 68 68 69 70 71 71 72 73 73 74 74 75 75 75 74 74 73 72 71 70 70 68 67 66 65 63 62 61 60 59 58 57 56 56 55 55 55 55 55 56 56 57 57 58 58 59
49 49 48 48 48 47 47 47 47 47 48 48 48 48 48 49 49 50 50 51 51 52 53 53 54 55 56 57 57 58 59 60 61 62 63 64 66 67 68 68 69 69 70 71 72 72 73 73 74 74 75 75 75 75 74 74 73 72 70 69 68 67 66 64 63 62 61 60 59 58 57 56 56 55 55 55 55 55 55 56 56 57 57 58 59 59
48 47 47 47 46 46 46 46 46 47 47 47 48 48 49 49 50 50 51 51 52 53 53 54 55 56 57 58 59 60 61 61 62 63 64 66 67 68 69 69 70 70 71 72 73 74 74 74 74 75 75 76 75 75 74 73 72 71 69 68 67 66 64 63 62 61 60 59 58 57 57 56 56 55 55 55 55 55 56 56 57 57 58 58 59 59
47 46 46 46 46 46 46 46 46 47 47 47 48 49 49 50 50 51 51 52 53 53 54 55 56 57 58 59 60 61 62 63 64 64 65 67 68 69 70 71 71 72 72 73 74 75 76 76 75 75 75 76 75 75 74 73 71 70 68 67 66 64 63 62 61 60 59 58 58 57 57 56 56 56 56 56 56 56 56 56 57 57 58 58 58 59
47 46 46 46 46 46 46 47 47 47 47 48 48 49 50 50 51 51 52 53 54 54 55 56 57 58 59 60 61 63 64 65 65 66 67 68 70 70 71 72 73 73 73 73 74 76 77 77 77 76 76 76 75 74 73 72 70 69 67 66 65 63 62 61 60 60 59 58 57 57 57 57 56 56 56 56 56 56 57 57 57 57 57 57 58 58
47 47 47 47 47 47 47 47 47 48 48 48 49 49 50 51 51 52 53 54 55 56 57 58 59 60 61 62 63 64 65 66 67 67 68 70 71 72 72 73 74 74 75 75 75 76 77 78 78 77 76 75 75 74 72 71 69 67 66 65 64 63 62 61 60 59 59 58 58 57 57 57 57 57 57 57 57 57 57 57 57 57 57 57 57 57
47 47 47 47 47 47 47 48 48 48 49 49 50 50 51 52 52 53 54 55 56 57 58 59 60 61 62 63 64 65 66 67 68 69 69 71 72 73 74 74 75 75 76 76 77 77 77 78 78 78 77 76 74 72 71 69 68 66 65 64 63 62 61 60 60 59 59 58 58 58 58 58 58 58 58 58 57 57 57 57 56 56 56 55 55 55
48 47 47 47 48 48 48 48 49 49 50 50 51 51 52 53 54 55 56 57 57 58 59 60 61 62 63 65 66 67 68 68 69 70 71 72 73 74 75 75 76 76 77 78 78 78 79 79 78 78 78 76 74 72 69 67 66 64 63 62 62 61 61 60 59 59 59 58 58 58 58 58 58 58 58 58 58 58 57 56 56 55 55 54 54 54
48 48 48 48 48 48 49 49 50 50 51 51 52 53 53 54 55 56 57 58 59 60 61 62 63 63 64 65 67 68 69 69 70 71 72 73 74 75 76 76 77 77 78 78 79 79 79 79 79 78 77 76 74 71 69 66 64 63 61 61 60 60 60 59 59 59 59 59 59 59 59 59 59 59 59 58 58 57 57 56 55 54 54 53 53 53
48 48 48 48 49 49 50 50 51 52 52 53 54 54 55 56 57 58 59 59 60 61 62 63 64 65 66 67 68 69 70 71 71 72 73 73 74 75 76 77 78 78 78 79 79 79 80 80 79 78 76 75 73 71 68 66 64 62 60 59 59 59 59 59 59 59 59 59 59 59 59 59 59 59 59 58 58 57 56 55 54 53 53 52 52 51
49 49 49 49 50 50 51 52 52 53 53 54 55 56 56 57 58 59 60 61 62 63 64 65 66 66 67 68 69 70 71 71 72 73 74 74 75 76 77 78 78 78 79 79 79 80 80 79 79 78 76 74 72 70 68 66 63 62 60 58 58 58 58 58 59 59 59 59 59 59 59 59 59 59 59 58 58 57 56 55 54 53 52 51 51 50
49 50 50 50 51 51 52 53 53 54 55 55 56 57 58 59 60 60 61 62 63 64 65 66 67 68 69 69 70 71 72 72 73 74 75 75 76 77 78 78 79 79 79 79 79 79 79 79 78 77 75 73 71 69 67 65 63 61 60 58 57 57 57 57 58 58 59 59 60 60 60 60 59 59 59 58 57 56 55 54 53 52 51 51 51 50
50 51 51 52 52 53 53 54 55 55 56 57 58 59 59 60 61 62 63 64 65 66 67 67 68 69 70 70 71 72 73 73 74 75 75 76 77 78 78 79 80 80 80 80 79 79 79 78 77 76 74 72 70 68 66 64 62 61 60 59 58 57 56 57 57 58 58 59 60 60 60 60 59 59 58 58 56 55 54 53 52 51 51 50 50 50
51 52 52 53 53 54 55 55 56 57 58 58 59 60 61 62 63 64 65 66 66 67 68 69 70 70 71 71 72 73 73 74 75 76 76 77 78 79 79 79 80 80 80 80 80 79 78 78 76 74 72 70 69 67 65 64 62 61 60 59 58 58 57 57 57 58 58 59 59 60 60 59 59 58 58 57 55 54 53 52 51 50 50 50 50 50
53 53 54 54 55 55 56 57 57 58 59 60 61 61 62 63 64 65 66 67 68 69 70 70 71 71 72 73 73 74 74 75 76 76 77 78 79 79 80 80 80 80 80 80 80 79 78 77 75 73 71 69 67 66 65 63 61 60 59 59 59 59 58 58 57 58 58 59 59 59 59 59 58 58 57 55 54 53 51 50 50 49 49 49 49 49
54 54 55 56 56 57 57 58 59 59 60 61 62 63 64 64 65 66 67 68 69 70 71 71 72 72 73 74 74 75 75 76 76 77 78 79 79 80 80 81 81 81 81 81 80 79 78 76 74 72 70 68 66 65 64 63 61 60 60 59 59 60 60 59 59 58 58 58 58 58 58 58 57 56 55 54 52 51 49 49 48 48 48 48 48 49
55 56 56 57 58 58 59 59 60 61 62 62 63 64 65 66 67 68 69 70 71 71 72 72 73 73 74 75 75 76 76 77 77 78 79 79 80 80 81 81 81 81 81 81 80 79 78 75 73 70 68 67 65 64 63 62 61 61 60 60 60 60 61 60 60 60 59 59 58 58 57 57 56 55 53 52 50 49 47 47 46 46 46 47 47 48
56 57 58 58 59 59 60 61 61 62 63 64 65 65 66 67 68 69 70 71 72 72 73 73 74 74 75 75 76 76 77 77 78 78 79 79 80 80 81 81 81 81 81 80 79 78 77 75 72 70 67 66 64 63 62 62 61 61 60 60 60 60 61 60 60 60 60 59 58 57 56 55 54 53 52 50 48 47 46 45 44 44 44 45 46 47
58 58 59 60 60 61 61 62 63 64 64 65 66 67 68 69 70 70 71 72 72 73 74 74 74 75 75 76 76 77 78 78 79 79 80 80 80 80 81 81 81 81 81 80 78 77 75 73 71 69 67 65 64 62 61 61 61 61 61 61 61 61 61 61 61 60 60 59 58 57 56 54 53 51 50 48 46 45 44 43 42 43 43 43 44 45
59 59 60 61 61 62 63 63 64 65 66 66 67 68 69 70 71 72 72 73 73 74 74 74 75 75 76 76 77 77 78 79 79 80 80 80 80 81 81 81 81 81 80 79 77 75 73 71 69 67 66 65 64 62 61 61 61 61 61 61 61 61 62 61 61 61 60 59 58 57 55 53 52 50 48 46 45 43 42 41 41 41 41 42 43 44
60 61 61 62 63 63 64 64 65 66 67 67 68 69 70 71 72 73 73 74 74 74 75 75 75 76 76 77 77 78 79 79 80 80 81 81 81 81 81 81 80 80 79 77 75 73 71 69 67 66 65 64 63 63 62 61 61 61 61 61 61 62 62 61 61 60 60 59 57 56 54 52 50 48 46 44 43 42 40 39 39 39 39 40 41 42
61 62 62 63 64 64 65 66 66 67 68 69 70 71 71 72 73 73 74 74 74 75 75 75 76 76 77 78 78 79 79 80 80 81 81 81 81 81 81 80 80 79 77 75 73 71 70 68 66 64 63 63 62 62 62 61 61 61 61 61 61 62 62 61 60 60 59 58 57 55 53 51 49 46 45 43 41 40 39 38 37 37 38 39 39 40
62 62 63 64 65 65 66 67 67 68 69 70 71 72 73 73 74 74 74 75 75 75 75 76 76 77 78 78 79 79 80 80 81 81 81 81 80 80 80 80 79 78 76 74 72 70 69 67 65 63 62 61 61 61 62 62 61 61 61 61 61 61 61 61 60 59 58 57 55 53 51 49 47 44 43 41 40 38 37 36 36 36 36 37 38 38
63 63 64 65 66 66 67 68 68 69 70 71 72 73 73 74 75 75 75 75 75 75 76 76 77 77 78 79 79 80 80 81 81 81 81 80 80 80 79 78 77 75 74 72 70 69 68 67 66 64 62 60 60 60 61 61 61 61 62 62 61 61 61 60 59 58 57 56 54 52 49 47 44 42 40 39 38 37 36 35 34 34 34 35 36 36
Wind_Direction
306 306 307 307 307 307 307 307 307 307 307 306 306 306 306 305 305 306 306 306 306 306 306 305 304 304 304 304 303 303 303 303 302 302 302 302 302 302 302 302 302 303 302 303 303 303 303 303 303 304 304 304 305 305 306 306 306 306 305 305 305 304 303 302 300 298 296 294 292 290 288 286 283 279 275 271 267 262 259 255 253 251 250 248 247 246
306 306 306 306 307 307 307 306 306 306 306 306 305 305 305 305 305 305 305 305 305 305 305 304 304 303 303 303 303 302 302 302 301 301 301 301 301 301 301 301 301 302 302 301 301 301 301 301 301 302 302 302 303 303 303 303 303 303 303 302 302 301 301 300 298 297 295 293 291 289 288 285 283 281 277 274 271 267 263 260 257 254 252 250 249 248
306 306 306 306 306 306 306 306 306 305 305 305 305 304 304 304 304 305 305 305 305 304 304 303 303 302 302 302 302 302 301 301 301 301 301 301 301 301 301 301 301 301 301 301 301 301 300 300 300 300 301 301 301 302 302 302 302 301 301 300 299 299 298 297 296 295 294 292 291 289 287 285 284 281 279 277 274 271 268 264 261 258 255 253 251 250
305 305 305 305 305 305 305 305 305 305 304 304 304 304 304 304 304 304 304 304 304 304 303 302 302 302 301 301 301 301 301 301 301 301 301 301 301 301 301 301 301 301 301 301 301 301 301 300 300 300 300 300 301 301 301 301 300 300 299 298 298 297 296 295 294 294 293 291 290 289 287 285 284 282 280 278 276 273 271 268 265 262 259 256 254 252
305 305 305 305 305 305 304 304 304 304 303 303 303 303 303 303 303 303 303 303 303 303 302 302 301 301 301 301 301 301 301 301 301 301 301 301 301 302 302 302 302 302 302 302 302 301 301 301 301 300 300 300 300 300 300 300 299 299 298 297 296 295 294 293 292 292 291 290 289 288 287 285 284 282 281 279 277 275 273 270 268 266 263 260 258 255
304 304 304 304 304 304 304 303 303 303 303 303 302 302 303 303 303 303 303 302 302 302 301 301 300 300 300 300 300 300 300 301 301 301 301 301 302 302 302 302 302 302 302 302 302 302 301 301 301 300 300 300 300 300 299 299 298 298 297 296 295 294 293 292 291 290 289 288 288 287 286 285 284 282 281 279 278 276 274 272 270 268 266 264 261 259
304 303 303 303 303 303 303 303 302 302 302 302 302 302 302 302 302 302 302 302 301 301 300 300 300 299 299 299 300 300 300 300 300 301 301 301 301 302 302 302 302 302 302 302 302 302 301 301 301 300 300 300 299 299 299 298 298 297 296 295 294 293 292 291 289 288 288 287 286 285 285 284 283 282 281 280 278 277 275 273 271 269 267 265 264 262
303 303 303 303 303 302 302 302 302 301 301 301 301 301 302 302 302 301 301 301 300 300 300 299 299 299 299 299 299 299 299 300 300 300 300 301 301 301 301 301 301 302 302 302 301 301 301 301 300 300 299 299 299 299 298 298 297 296 295 294 293 292 291 290 289 287 287 285 284 284 283 282 281 280 279 279 278 277 276 274 273 271 269 267 265 264
302 302 302 302 302 302 302 301 301 301 301 301 301 301 301 301 301 301 300 300 300 299 299 298 298 298 298 298 298 299 299 299 299 300 300 300 300 301 301 301 301 301 301 301 301 301 301 300 300 299 299 299 299 298 298 297 296 295 294 293 292 291 290 289 288 287 286 285 284 282 281 280 279 279 278 277 277 276 275 274 273 272 271 269 267 265
302 301 301 301 301 301 301 301 300 301 301 300 300 300 301 300 300 300 300 299 299 298 298 298 297 297 298 298 298 298 298 298 299 299 299 300 300 300 300 300 300 301 301 301 301 301 300 300 300 299 299 299 298 298 298 297 296 295 294 293 292 291 290 288 287 286 285 284 283 281 280 279 279 278 277 276 275 275 274 274 273 272 271 270 269 267
301 301 301 301 301 300 300 300 300 300 300 300 300 300 300 300 299 299 299 298 298 298 297 297 297 297 297 297 298 298 298 298 298 299 299 299 299 300 300 300 300 300 300 301 300 300 300 300 299 299 299 299 299 298 298 297 296 295 294 293 292 291 290 289 287 286 284 283 282 280 279 278 278 277 276 275 275 274 274 273 273 272 271 271 270 269
300 300 300 300 300 300 300 300 300 300 300 300 300 300 299 299 299 298 298 297 297 297 297 297 297 296 297 297 297 297 298 298 298 299 299 299 299 299 299 299 300 300 300 300 300 300 300 300 299 299 299 299 298 298 298 297 297 296 295 294 293 292 291 289 288 286 285 283 281 280 279 278 277 276 276 275 274 274 273 273 272 272 271 271 270 269
300 300 300 299 299 299 299 299 299 299 299 299 299 299 299 298 298 297 297 297 296 296 296 296 296 296 296 297 297 297 298 298 298 298 299 299 299 299 299 299 300 300 300 300 300 300 300 299 299 299 299 299 299 298 298 298 297 296 296 295 294 293 292 290 289 287 285 284 282 280 279 278 277 276 275 275 274 274 273 273 272 272 271 271 270 270
299 299 299 299 299 299 299 299 299 299 299 299 298 298 298 297 297 297 296 296 296 296 296 296 296 296 296 297 297 297 298 298 298 298 299 299 299 299 299 300 300 300 300 300 300 300 300 300 299 299 299 299 299 299 298 298 297 297 296 296 295 294 293 292 290 288 287 285 283 282 280 279 278 277 275 275 274 273 273 272 272 271 271 270 270 269
299 299 299 299 299 299 299 299 299 299 298 298 298 297 297 297 297 296 296 296 296 296 296 296 296 296 296 297 297 297 298 298 298 299 299 299 299 299 300 300 300 300 300 300 300 300 300 300 300 300 300 300 300 299 299 299 298 298 297 296 296 295 294 292 291 290 288 286 285 284 282 281 279 278 277 276 275 274 273 272 271 271 270 270 269 269
298 298 298 298 298 298 298 298 298 298 298 297 297 297 296 296 296 296 296 296 296 296 296 296 296 296 297 297 297 297 298 298 298 299 299 299 299 300 300 300 300 301 301 300 300 300 300 300 300 300 300 300 300 300 299 299 299 298 298 297 296 296 295 293 292 291 289 288 287 285 284 283 281 280 279 277 276 275 274 273 272 271 270 269 269 268
298 298 298 298 298 298 298 298 298 297 297 297 296 296 296 296 296 296 295 295 295 296 296 296 296 296 297 297 297 298 298 298 299 299 299 300 300 300 301 301 301 301 301 300 300 300 301 301 301 301 301 301 301 300 300 300 299 299 298 298 297 296 295 294 293 292 290 289 288 287 286 285 284 282 281 279 278 277 275 274 272 271 270 269 269 268
297 297 297 297 297 297 297 297 297 297 296 296 296 296 296 296 296 295 295 295 295 295 296 296 296 296 297 297 298 298 299 299 299 299 299 300 300 301 301 301 301 301 301 301 301 301 301 301 301 301 301 301 301 301 300 300 300 299 299 298 298 297 296 295 294 293 292 291 290 289 288 287 285 284 283 281 280 278 277 275 274 272 271 270 269 268
297 296 297 297 297 297 297 297 296 296 296 296 296 296 296 295 295 295 295 295 295 295 296 296 297 297 297 297 298 299 299 299 299 300 300 300 300 301 301 301 301 301 301 301 301 301 301 301 301 302 302 301 301 301 301 300 300 300 299 299 298 298 297 296 294 293 293 292 291 290 289 288 287 286 284 283 281 280 278 277 275 274 272 271 270 268
296 296 296 296 296 296 296 296 296 296 296 296 296 296 296 296 295 295 295 295 296 296 296 297 297 298 298 298 299 299 300 300 300 300 300 301 301 301 301 301 301 301 301 301 301 301 301 302 302 302 302 302 302 301 301 301 300 300 300 299 299 298 297 296 295 294 294 293 292 291 290 289 288 287 285 284 282 281 279 278 276 275 273 272 271 269
296 296 296 296 296 296 296 296 296 296 296 296 296 296 296 296 296 296 296 296 296 297 297 297 298 298 299 299 299 300 300 301 301 301 301 301 301 301 301 301 301 301 301 301 301 302 302 302 302 302 302 302 302 302 301 301 301 301 300 300 300 299 298 297 296 295 295 294 293 292 291 290 289 288 286 285 283 282 280 279 277 276 274 273 272 270
295 295 296 296 296 296 296 296 296 296 296 296 296 296 296 296 296 296 297 297 297 298 298 298 299 299 300 300 300 301 301 301 301 301 302 301 301 301 302 302 302 302 302 302 302 303 303 303 303 303 303 303 302 302 302 302 302 301 301 301 300 300 299 298 297 296 296 295 294 293 292 291 290 288 287 285 284 282 281 279 278 276 275 274 272 271
295 295 296 296 296 296 296 296 297 297 297 297 297 297 297 297 297 297 298 298 298 299 299 299 300 300 300 301 301 301 302 302 302 302 302 302 302 302 302 302 302 302 302 303 303 303 303 303 303 303 303 303 303 303 303 302 302 302 302 302 301 300 299 299 298 297 297 296 295 294 293 291 290 288 287 286 284 283 281 280 278 277 276 274 273 272
295 295 295 296 296 296 297 297 297 297 297 297 297 297 298 298 298 298 299 299 299 300 300 300 301 301 301 301 302 302 302 302 302 302 302 302 302 303 303 303 303 303 303 304 304 304 304 304 304 304 304 304 304 303 303 303 303 303 303 303 302 301 300 299 299 298 297 296 295 294 293 292 290 289 287 286 284 283 281 280 279 277 276 275 274 272
295 295 296 296 296 297 297 297 298 298 298 298 298 298 299 299 299 299 300 300 300 301 301 301 301 302 302 302 302 302 302 302 303 303 303 303 303 303 304 304 304 304 304 304 305 305 305 305 305 305 304 304 304 304 304 304 304 304 304 303 303 302 301 300 299 298 298 297 296 294 293 292 290 289 287 286 284 283 282 280 279 278 277 275 274 273
295 296 296 297 297 297 298 298 298 298 298 299 299 299 299 300 300 300 300 301 301 301 302 302 302 302 302 303 303 303 303 303 303 303 304 304 304 304 304 305 305 305 305 305 305 305 305 305 305 305 305 305 305 305 305 305 305 305 305 304 303 302 301 301 300 299 298 297 296 294 293 292 290 289 287 286 285 283 282 281 279 278 277 276 274 273
296 296 297 297 297 298 298 298 298 299 299 299 300 300 301 301 301 301 301 302 302 302 302 302 302 303 303 303 303 303 304 304 304 304 304 305 305 305 305 306 306 306 306 306 306 306 306 306 306 306 306 306 306 306 306 306 306 306 305 305 304 303 302 301 300 299 298 297 296 294 293 292 290 289 288 286 285 284 282 281 280 278 277 276 275 273
297 297 298 298 298 298 299 299 299 300 300 300 301 301 302 302 302 302 302 303 303 303 303 303 303 304 304 304 304 304 305 305 305 305 305 305 305 305 306 306 307 306 307 307 307 306 307 307 307 307 307 307 307 307 307 307 307 306 306 305 304 303 302 301 300 299 298 297 296 295 293 292 290 289 288 287 285 284 283 281 280 279 278 276 275 274
298 298 299 299 299 299 300 300 300 301 301 302 302 302 303 303 303 303 303 304 304 304 304 304 304 305 305 305 305 305 305 306 306 306 306 306 306 306 307 307 307 307 307 307 307 307 307 307 308 308 308 308 308 308 308 308 307 307 306 306 305 303 303 302 301 300 299 297 296 295 294 292 291 290 288 287 286 285 283 282 281 280 278 277 276 274
299 300 300 300 300 300 301 301 301 302 302 303 303 303 304 304 304 304 304 305 305 305 305 305 306 306 306 306 307 306 306 306 307 307 307 307 307 307 307 308 308 308 308 308 309 308 308 308 308 308 309 309 309 308 308 308 308 308 307 306 305 304 303 302 301 300 299 298 297 296 294 293 292 291 289 288 287 286 284 283 282 281 279 278 277 275
301 301 301 301 301 302 302 302 302 303 303 303 304 304 304 305 305 305 306 306 306 306 306 307 307 307 307 307 307 307 307 307 308 308 308 308 308 308 308 308 308 309 309 309 310 310 309 309 309 309 309 309 309 309 309 309 309 308 307 306 305 304 304 303 301 300 299 298 297 296 295 294 293 292 291 290 288 287 286 285 283 282 281 280 278 277
302 302 302 302 302 303 303 303 303 304 304 304 305 305 305 306 306 306 306 307 307 307 307 308 308 308 308 308 308 308 308 308 308 309 309 308 308 308 309 309 309 309 310 310 310 310 310 311 310 310 310 310 310 310 310 309 309 309 308 307 306 305 304 303 302 301 300 299 298 297 296 295 294 293 292 291 290 288 287 286 285 283 282 281 280 278
302 302 303 303 303 303 303 304 304 304 305 305 306 306 306 306 307 307 307 308 308 308 308 308 308 308 308 308 308 308 308 309 309 309 309 309 309 309 309 310 310 310 310 311 311 311 311 311 311 311 310 310 310 310 310 310 309 309 308 307 306 305 304 304 303 302 301 300 299 298 297 296 295 294 293 292 291 290 289 287 286 285 284 282 281 279
302 303 303 303 303 304 304 304 305 305 306 306 306 307 307 307 308 308 308 308 309 309 309 309 309 309 309 309 309 309 309 309 309 309 310 309 310 310 310 310 310 311 311 311 311 311 311 311 311 311 311 311 310 310 310 310 310 309 308 308 307 306 305 304 303 302 301 301 300 299 298 297 296 296 295 294 292 291 290 289 287 286 285 283 282 281
302 303 303 304 304 304 305 305 305 306 306 307 307 308 308 308 308 309 309 309 309 309 309 309 309 309 309 309 309 309 309 309 310 310 310 310 310 310 310 311 311 311 312 312 312 312 312 312 312 312 312 311 311 310 310 310 309 309 308 308 307 306 305 304 304 303 302 301 301 300 299 298 298 297 296 295 294 293 291 290 289 288 286 285 283 282
302 303 303 304 304 305 305 306 306 306 307 307 308 308 308 309 309 309 309 310 310 310 310 310 310 309 309 309 309 310 310 310 310 310 310 310 310 311 311 311 311 312 312 312 312 313 313 312 312 312 312 312 311 311 310 310 309 309 308 308 307 306 305 305 304 304 303 302 301 301 300 299 299 298 297 296 295 294 293 292 290 289 287 286 284 283
302 303 303 304 304 305 305 306 306 307 307 308 308 308 309 309 310 310 310 310 310 310 310 310 310 310 310 310 310 310 310 310 310 310 311 311 311 311 311 311 312 312 312 312 313 313 313 313 313 312 312 312 312 311 310 310 309 308 308 307 307 306 306 305 305 304 304 303 302 302 301 300 300 299 298 297 296 295 294 293 292 290 289 287 285 283
302 303 303 304 304 305 305 306 306 307 307 308 308 309 309 310 310 310 310 310 310 310 310 310 310 310 310 310 310 310 310 310 311 311 311 311 311 311 311 311 312 312 312 313 313 313 313 313 313 313 313 312 311 311 310 310 309 309 308 307 307 306 306 306 305 305 304 303 303 302 302 301 301 300 299 298 297 296 295 294 293 291 290 288 286 284
302 303 303 304 304 305 305 306 306 307 308 308 309 309 310 310 310 310 310 310 310 310 310 310 310 310 310 310 310 310 311 311 311 311 311 311 311 311 311 312 312 312 312 313 313 313 313 313 313 313 313 312 312 311 310 309 309 309 308 307 307 306 306 306 305 305 304 304 303 303 302 302 301 301 300 299 298 297 296 295 294 293 291 289 287 285
302 303 303 304 305 305 306 306 307 307 308 308 309 309 310 310 310 310 310 310 310 310 310 310 310 310 310 310 311 311 311 311 311 311 311 311 311 311 312 312 312 312 313 313 313 313 313 313 313 313 312 312 311 311 310 309 309 309 308 308 307 307 306 306 305 305 305 304 304 303 303 303 302 301 300 300 299 298 297 296 295 293 291 290 288 286
303 303 304 304 305 305 306 306 307 308 308 309 309 309 310 310 310 310 310 310 310 310 310 310 310 310 310 310 311 311 311 311 311 311 311 311 311 312 312 312 312 313 313 313 313 313 313 313 313 313 312 312 311 310 310 309 309 309 309 308 308 307 307 306 306 305 305 304 304 304 303 303 302 301 301 300 299 299 298 296 295 293 292 290 289 287
303 303 304 304 305 305 306 306 307 308 308 309 309 309 309 310 310 310 310 310 310 310 310 310 310 310 310 310 311 311 311 311 311 311 311 311 312 312 312 312 313 313 313 314 314 314 313 313 313 313 312 311 311 310 310 309 309 309 309 309 308 308 307 306 306 305 305 304 304 304 303 303 302 302 301 300 300 299 298 296 295 293 292 290 289 288
302 303 304 304 305 305 306 306 307 308 308 308 309 309 309 309 309 309 309 309 309 310 310 310 310 310 311 311 311 311 311 311 311 311 311 312 312 312 313 313 313 314 314 314 314 314 313 313 313 312 312 311 311 310 310 310 309 309 309 309 309 309 308 307 306 306 305 305 304 304 303 303 302 301 301 300 299 298 297 296 294 293 292 291 290 289
302 303 303 304 305 305 306 306 307 307 308 308 308 308 309 309 309 309 309 309 309 309 310 310 310 310 310 310 311 311 311 311 311 311 311 312 312 312 313 313 314 314 314 314 314 314 313 313 312 312 311 311 310 310 310 310 310 310 310 310 309 309 308 308 307 306 306 305 305 304 303 303 302 301 301 300 299 298 296 295 294 293 292 291 290 289
302 303 303 304 304 305 306 306 307 307 307 308 308 308 308 308 308 309 309 309 309 309 310 310 310 310 310 310 311 311 311 311 311 311 311 312 312 313 313 313 314 314 314 314 314 314 313 313 312 311 311 310 310 310 310 310 310 310 310 310 309 309 308 308 307 307 306 306 305 304 304 303 302 301 301 300 299 297 295 294 293 292 292 291 290 289
302 302 303 304 304 305 305 306 306 307 307 307 308 308 308 308 308 308 308 309 309 309 310 310 310 310 310 310 310 310 310 311 311 311 312 312 312 313 313 314 314 314 314 314 314 313 313 312 312 311 311 310 310 310 310 310 310 310 310 310 309 309 308 308 307 307 306 306 305 304 304 303 302 301 301 299 298 296 295 293 293 292 292 291 290 289
302 302 303 304 304 305 305 306 306 307 307 307 307 307 308 308 308 308 308 309 309 309 310 310 310 310 310 310 310 310 310 310 311 311 312 312 313 313 314 314 314 314 314 314 313 313 312 311 311 311 311 310 310 310 310 311 311 311 310 310 310 309 308 308 307 307 307 306 305 304 304 303 302 301 300 299 297 296 294 293 293 292 292 291 290 289
302 302 303 303 304 304 305 306 306 306 307 307 307 307 307 308 308 308 308 309 309 309 309 309 310 310 309 310 310 310 310 310 311 311 312 312 313 313 314 314 314 314 314 313 313 312 312 311 310 310 310 311 311 311 311 311 311 311 310 310 309 309 308 308 308 307 306 306 305 304 304 303 302 302 300 299 297 295 294 293 293 293 292 291 290 289
302 302 303 303 304 304 305 305 306 306 306 307 307 307 307 307 307 308 308 309 309 309 309 309 309 309 309 309 310 310 310 311 311 311 312 313 313 314 314 314 314 314 313 313 312 312 311 310 310 310 310 310 311 311 311 311 311 311 310 310 309 309 309 308 307 307 306 305 305 304 303 303 302 301 300 298 296 295 294 294 293 293 293 292 291 289
302 302 303 303 304 304 305 305 306 306 306 306 307 307 307 307 307 308 308 309 309 309 309 309 309 309 309 309 310 310 310 311 311 312 312 313 313 314 314 314 314 314 314 313 312 311 311 310 309 309 310 310 311 311 311 311 311 311 310 310 310 309 309 308 308 307 306 305 304 303 303 303 302 301 299 298 296 295 294 294 294 294 293 293 292 290
301 302 303 303 304 304 305 305 305 306 306 306 306 306 307 307 307 308 308 308 309 309 309 309 309 309 309 309 310 310 310 311 311 312 313 313 314 314 314 314 314 314 314 313 312 311 311 310 310 310 310 310 311 311 312 311 312 311 311 310 310 310 309 308 308 307 306 304 304 303 303 302 302 300 299 297 295 295 294 294 294 294 294 293 293 292
Height
10542 10538 10535 10532 10529 10525 10521 10519 10516 10513 10509 10506 10504 10501 10499 10496 10494 10491 10489 10487 10485 10483 10481 10479 10477 10475 10474 10472 10470 10469 10467 10465 10464 10462 10461 10459 10458 10457 10455 10454 10454 10452 10451 10450 10449 10448 10447 10445 10444 10443 10442 10440 10439 10437 10436 10435 10433 10432 10430 10429 10428 10427 10427 10428 10428 10428 10428 10428 10427 10427 10427 10427 10427 10427 10427 10427 10427 10427 10427 10427 10427 10427 10427 10428 10428 10429
10536 10532 10529 10526 10523 10520 10515 10512 10510 10508 10505 10501 10499 10496 10494 10491 10489 10487 10485 10483 10481 10479 10477 10474 10472 10470 10469 10467 10466 10465 10463 10462 10460 10459 10457 10456 10455 10453 10452 10451 10450 10449 10448 10447 10445 10445 10444 10442 10441 10440 10439 10438 10437 10435 10434 10432 10431 10430 10428 10427 10425 10424 10424 10423 10423 10424 10424 10424 10424 10424 10423 10423 10423 10423 10423 10423 10424 10424 10424 10424 10424 10424 10424 10424 10424 10424
10530 10527 10523 10520 10517 10515 10511 10507 10505 10502 10500 10497 10494 10492 10489 10487 10484 10482 10480 10479 10476 10474 10472 10470 10468 10466 10464 10463 10462 10460 10459 10457 10456 10455 10453 10452 10450 10449 10448 10447 10445 10445 10444 10443 10442 10440 10440 10439 10437 10436 10435 10434 10433 10432 10431 10430 10428 10427 10425 10424 10423 10422 10420 10420 10419 10419 10419 10419 10419 10419 10419 10419 10419 10419 10419 10419 10419 10419 10419 10419 10419 10419 10419 10419 10419 10420
10525 10522 10518 10515 10512 10509 10506 10503 10500 10497 10495 10492 10489 10487 10485 10482 10480 10478 10476 10474 10472 10470 10468 10466 10464 10462 10460 10459 10457 10455 10454 10453 10451 10450 10449 10447 10445 10444 10443 10442 10440 10440 10439 10438 10437 10436 10435 10434 10433 10432 10431 10430 10429 10428 10427 10426 10425 10424 10422 10421 10420 10419 10417 10416 10415 10415 10414 10414 10414 10414 10414 10414 10414 10414 10414 10414 10414 10414 10414 10414 10414 10415 10415 10415 10415 10415
10519 10517 10513 10510 10507 10504 10500 10499 10495 10493 10490 10487 10485 10482 10480 10478 10476 10474 10472 10470 10468 10466 10464 10462 10460 10458 10456 10454 10453 10451 10450 10448 10447 10445 10444 10442 10440 10439 10438 10437 10435 10435 10434 10433 10432 10431 10430 10429 10428 10427 10426 10425 10425 10424 10423 10422 10421 10420 10419 10418 10417 10415 10414 10414 10412 10411 10410 10409 10409 10409 10409 10409 10409 10409 10409 10409 10409 10409 10409 10409 10409 10409 10409 10410 10410 10410
10513 10511 10508 10505 10502 10499 10496 10493 10490 10488 10485 10482 10480 10478 10476 10474 10472 10469 10467 10465 10464 10462 10460 10457 10455 10454 10452 10450 10449 10447 10445 10444 10442 10441 10439 10438 10436 10435 10433 10432 10430 10430 10429 10428 10427 10426 10425 10424 10424 10422 10422 10421 10420 10419 10419 10418 10417 10416 10415 10414 10413 10412 10411 10410 10409 10408 10407 10406 10405 10404 10404 10403 10403 10403 10403 10403 10403 10403 10403 10404 10404 10404 10404 10404 10404 10404
10507 10505 10503 10500 10497 10494 10491 10489 10486 10484 10481 10478 10475 10474 10472 10470 10467 10465 10463 10461 10459 10457 10455 10454 10452 10450 10449 10447 10445 10444 10442 10440 10439 10437 10435 10434 10432 10430 10429 10427 10426 10425 10424 10424 10423 10422 10421 10420 10419 10418 10417 10416 10415 10415 10415 10414 10413 10412 10412 10410 10409 10409 10407 10406 10405 10404 10404 10402 10401 10400 10399 10399 10398 10397 10397 10397 10397 10397 10397 10397 10397 10397 10397 10398 10398 10398
10502 10499 10497 10495 10492 10489 10486 10484 10482 10479 10477 10474 10471 10469 10467 10465 10463 10461 10459 10457 10455 10453 10451 10449 10447 10446 10444 10443 10441 10440 10438 10437 10435 10434 10432 10430 10429 10427 10425 10424 10422 10421 10420 10419 10419 10418 10417 10415 10415 10414 10413 10412 10411 10410 10410 10409 10409 10408 10407 10406 10405 10404 10404 10402 10402 10400 10399 10399 10397 10397 10395 10394 10394 10392 10392 10391 10390 10390 10390 10390 10390 10391 10391 10391 10392 10392
10497 10494 10490 10489 10487 10484 10481 10478 10476 10475 10472 10470 10467 10465 10462 10460 10458 10457 10455 10453 10451 10449 10447 10445 10443 10442 10440 10439 10437 10436 10434 10433 10432 10430 10428 10427 10425 10423 10421 10420 10418 10417 10416 10415 10414 10414 10412 10412 10410 10409 10408 10407 10407 10406 10405 10405 10404 10404 10403 10402 10401 10400 10399 10399 10397 10396 10395 10394 10393 10392 10391 10390 10389 10387 10387 10385 10385 10384 10384 10383 10383 10384 10384 10384 10384 10385
10491 10489 10486 10484 10482 10480 10477 10474 10471 10469 10468 10465 10463 10460 10459 10456 10454 10452 10450 10448 10447 10445 10444 10442 10439 10437 10436 10435 10434 10432 10430 10429 10427 10426 10425 10423 10421 10419 10417 10415 10414 10413 10412 10411 10410 10409 10408 10407 10406 10405 10404 10403 10402 10401 10400 10400 10399 10399 10398 10397 10396 10395 10395 10394 10393 10392 10390 10389 10388 10387 10385 10384 10383 10382 10381 10380 10379 10378 10377 10377 10376 10376 10376 10376 10377 10377
10485 10484 10481 10479 10476 10474 10472 10470 10467 10465 10463 10460 10458 10456 10454 10453 10450 10448 10445 10444 10442 10440 10439 10437 10436 10434 10432 10430 10429 10428 10427 10425 10424 10422 10421 10419 10417 10415 10413 10412 10410 10409 10408 10407 10405 10405 10404 10402 10401 10400 10399 10398 10397 10396 10395 10394 10394 10393 10392 10392 10391 10390 10390 10389 10388 10387 10385 10384 10383 10382 10380 10379 10377 10376 10375 10374 10372 10372 10370 10370 10369 10369 10368 10368 10369 10369
10480 10478 10476 10474 10471 10469 10467 10465 10462 10460 10459 10456 10454 10451 10449 10449 10447 10445 10442 10439 10437 10436 10435 10433 10432 10430 10429 10427 10425 10424 10422 10421 10420 10419 10417 10415 10413 10411 10409 10407 10406 10405 10404 10402 10401 10400 10399 10397 10396 10395 10394 10393 10392 10391 10390 10389 10388 10387 10387 10385 10385 10384 10384 10383 10382 10381 10380 10379 10377 10376 10374 10373 10371 10370 10369 10367 10366 10365 10364 10363 10362 10361 10360 10360 10360 10360
10475 10474 10471 10469 10467 10464 10462 10460 10457 10455 10454 10452 10450 10447 10445 10444 10442 10440 10438 10435 10434 10432 10430 10429 10427 10426 10425 10423 10421 10420 10418 10417 10415 10414 10413 10411 10409 10407 10405 10404 10402 10401 10400 10398 10397 10395 10394 10393 10391 10390 10389 10388 10387 10385 10384 10383 10382 10381 10380 10379 10379 10378 10377 10376 10375 10374 10373 10372 10370 10369 10368 10366 10365 10364 10362 10360 10359 10358 10357 10355 10355 10354 10353 10352 10352 10352
10470 10469 10466 10464 10462 10460 10457 10455 10453 10451 10449 10447 10445 10443 10441 10439 10438 10436 10434 10432 10430 10429 10427 10425 10423 10422 10420 10419 10417 10416 10414 10412 10411 10410 10409 10407 10405 10403 10401 10399 10397 10396 10395 10394 10392 10390 10389 10388 10386 10385 10384 10383 10382 10380 10379 10378 10376 10375 10374 10373 10372 10371 10370 10369 10368 10367 10365 10364 10363 10362 10360 10359 10358 10357 10355 10354 10352 10350 10349 10348 10347 10346 10345 10345 10344 10344
10466 10464 10461 10459 10457 10455 10453 10451 10449 10446 10444 10442 10441 10439 10437 10435 10434 10432 10430 10427 10425 10424 10423 10421 10419 10417 10416 10415 10414 10412 10410 10409 10407 10405 10404 10402 10401 10399 10397 10395 10393 10392 10390 10389 10387 10385 10384 10383 10381 10380 10379 10377 10376 10375 10374 10372 10370 10369 10368 10367 10365 10364 10363 10362 10360 10359 10358 10357 10355 10354 10352 10351 10350 10349 10347 10345 10344 10343 10342 10340 10339 10339 10337 10337 10336 10335
10461 10459 10457 10454 10452 10450 10449 10447 10444 10442 10440 10438 10437 10435 10433 10431 10429 10427 10425 10424 10422 10420 10419 10417 10415 10413 10412 10410 10410 10408 10406 10404 10402 10401 10400 10397 10396 10395 10394 10390 10388 10387 10385 10384 10382 10380 10379 10377 10376 10375 10374 10372 10370 10369 10367 10365 10364 10363 10361 10360 10359 10357 10356 10355 10353 10352 10350 10348 10347 10345 10344 10342 10341 10340 10339 10337 10335 10334 10334 10332 10331 10330 10329 10329 10328 10327
10457 10454 10452 10450 10448 10445 10444 10442 10440 10438 10435 10434 10432 10430 10429 10427 10425 10424 10422 10419 10417 10416 10414 10413 10411 10409 10407 10406 10405 10404 10403 10400 10398 10397 10395 10393 10392 10390 10389 10387 10384 10382 10380 10379 10377 10375 10374 10372 10370 10369 10368 10366 10365 10363 10361 10359 10358 10356 10355 10354 10352 10350 10349 10347 10345 10344 10342 10340 10339 10337 10335 10334 10332 10330 10329 10328 10327 10325 10324 10323 10322 10321 10320 10320 10319 10319
10452 10450 10448 10445 10444 10441 10439 10437 10435 10434 10432 10430 10428 10426 10425 10423 10421 10419 10417 10415 10414 10412 10410 10409 10407 10406 10404 10402 10400 10399 10399 10397 10394 10392 10391 10389 10387 10386 10385 10383 10380 10378 10375 10374 10372 10370 10369 10367 10365 10364 10362 10360 10359 10357 10355 10354 10352 10350 10349 10347 10345 10344 10342 10340 10338 10335 10334 10332 10330 10329 10327 10325 10323 10322 10320 10319 10317 10315 10314 10314 10312 10312 10311 10310 10310 10309
10447 10445 10444 10441 10439 10437 10435 10433 10431 10429 10427 10425 10424 10422 10420 10419 10417 10415 10414 10412 10410 10408 10407 10405 10403 10402 10400 10398 10396 10395 10394 10392 10390 10388 10387 10385 10383 10382 10380 10379 10376 10373 10371 10369 10367 10365 10364 10362 10360 10359 10357 10355 10353 10351 10349 10347 10345 10344 10342 10340 10339 10337 10334 10332 10330 10328 10325 10324 10322 10320 10318 10316 10314 10312 10311 10309 10308 10306 10305 10304 10303 10302 10302 10301 10300 10300
10442 10441 10439 10437 10435 10432 10430 10429 10427 10425 10423 10422 10420 10418 10416 10415 10413 10411 10409 10408 10406 10404 10403 10401 10399 10397 10396 10394 10392 10390 10390 10388 10385 10384 10382 10380 10379 10377 10376 10374 10371 10369 10366 10364 10362 10360 10359 10357 10355 10354 10352 10349 10347 10345 10343 10341 10339 10337 10335 10333 10331 10329 10327 10325 10322 10320 10318 10315 10314 10312 10310 10307 10305 10304 10302 10300 10299 10297 10296 10295 10294 10293 10292 10292 10291 10291
10438 10436 10435 10434 10431 10429 10426 10424 10422 10421 10419 10417 10415 10414 10412 10410 10409 10407 10405 10404 10402 10400 10399 10397 10395 10394 10392 10390 10387 10386 10385 10384 10381 10379 10377 10375 10374 10373 10372 10370 10367 10364 10361 10359 10357 10355 10354 10352 10350 10348 10346 10344 10341 10339 10337 10334 10332 10330 10329 10326 10324 10322 10319 10317 10314 10312 10310 10308 10305 10304 10301 10299 10297 10295 10294 10292 10290 10289 10287 10287 10285 10285 10284 10283 10283 10282
10434 10432 10430 10429 10427 10424 10422 10420 10418 10417 10415 10414 10412 10410 10408 10407 10405 10403 10401 10400 10398 10396 10395 10393 10391 10390 10388 10386 10384 10382 10380 10379 10377 10374 10372 10370 10369 10368 10367 10365 10362 10359 10357 10354 10352 10350 10348 10346 10344 10342 10340 10338 10335 10333 10330 10328 10326 10324 10322 10319 10317 10314 10312 10309 10306 10304 10302 10300 10297 10295 10293 10291 10289 10287 10285 10284 10282 10281 10280 10279 10277 10277 10276 10275 10275 10274
10430 10428 10426 10424 10422 10420 10418 10416 10414 10412 10411 10409 10407 10406 10404 10402 10400 10399 10397 10395 10394 10392 10390 10389 10387 10385 10384 10382 10380 10378 10376 10374 10372 10370 10368 10365 10364 10362 10362 10360 10357 10354 10352 10349 10347 10344 10342 10340 10339 10336 10334 10332 10329 10327 10324 10322 10319 10317 10314 10312 10309 10307 10304 10301 10299 10296 10294 10292 10290 10287 10285 10284 10282 10280 10278 10276 10275 10274 10272 10271 10270 10269 10269 10268 10267 10267
10426 10424 10422 10420 10419 10416 10414 10412 10410 10409 10407 10405 10404 10402 10400 10399 10397 10395 10394 10392 10390 10389 10387 10385 10383 10381 10380 10379 10376 10374 10372 10370 10368 10365 10363 10360 10359 10357 10356 10355 10352 10349 10346 10344 10342 10339 10336 10334 10332 10330 10328 10325 10323 10320 10317 10315 10312 10310 10307 10305 10302 10299 10296 10294 10291 10289 10287 10284 10282 10280 10278 10276 10274 10272 10270 10269 10267 10266 10265 10264 10263 10262 10261 10260 10260 10259
10422 10420 10418 10416 10414 10412 10410 10409 10407 10405 10403 10402 10400 10399 10397 10395 10394 10392 10390 10389 10387 10385 10383 10381 10379 10377 10375 10374 10372 10370 10368 10366 10364 10362 10359 10355 10354 10352 10350 10349 10347 10344 10340 10339 10336 10334 10330 10328 10325 10324 10322 10319 10317 10314 10311 10308 10305 10303 10300 10297 10295 10292 10289 10286 10284 10281 10279 10277 10275 10273 10271 10269 10267 10265 10264 10262 10260 10259 10259 10257 10256 10255 10254 10254 10253 10252
10419 10417 10415 10413 10411 10409 10407 10405 10403 10401 10399 10398 10396 10395 10394 10392 10390 10388 10387 10385 10383 10381 10379 10377 10375 10374 10372 10370 10368 10366 10364 10362 10360 10357 10354 10351 10348 10346 10345 10344 10342 10339 10335 10333 10330 10328 10325 10322 10319 10317 10315 10312 10310 10307 10304 10302 10299 10296 10293 10290 10287 10284 10282 10279 10277 10274 10272 10270 10268 10266 10264 10262 10260 10259 10257 10255 10254 10253 10252 10250 10250 10249 10248 10247 10246 10245
10415 10413 10411 10409 10407 10405 10404 10402 10400 10398 10396 10394 10393 10391 10390 10388 10386 10384 10383 10381 10380 10378 10375 10374 10371 10369 10368 10366 10364 10362 10360 10357 10355 10353 10350 10347 10344 10340 10339 10338 10336 10334 10330 10327 10325 10323 10319 10316 10313 10310 10308 10305 10303 10300 10297 10295 10292 10289 10286 10283 10280 10277 10274 10272 10269 10267 10265 10263 10261 10259 10257 10255 10254 10252 10250 10249 10248 10247 10245 10244 10243 10242 10241 10240 10239 10239
10412 10410 10408 10406 10404 10402 10400 10399 10397 10395 10392 10391 10389 10387 10386 10384 10382 10380 10379 10377 10376 10374 10372 10370 10367 10365 10363 10361 10359 10357 10355 10353 10350 10348 10345 10342 10339 10336 10334 10332 10330 10328 10325 10322 10319 10317 10314 10310 10307 10304 10302 10299 10296 10294 10290 10288 10285 10282 10279 10276 10273 10270 10267 10265 10262 10260 10258 10256 10254 10252 10250 10249 10247 10246 10244 10243 10242 10240 10239 10238 10237 10235 10234 10234 10232 10232
10408 10406 10405 10403 10401 10399 10397 10395 10394 10391 10389 10387 10385 10384 10382 10381 10379 10377 10375 10374 10372 10369 10367 10365 10364 10361 10359 10357 10354 10352 10350 10348 10346 10344 10341 10337 10334 10330 10329 10327 10325 10322 10320 10315 10312 10310 10308 10305 10302 10299 10295 10292 10289 10287 10284 10281 10278 10275 10272 10269 10267 10264 10261 10258 10255 10254 10251 10249 10247 10245 10244 10242 10240 10239 10238 10237 10235 10234 10232 10231 10230 10229 10227 10226 10225 10225
10404 10403 10401 10399 10397 10396 10394 10392 10390 10388 10386 10384 10382 10380 10379 10377 10375 10373 10371 10369 10367 10365 10363 10360 10359 10357 10354 10352 10349 10347 10345 10343 10341 10339 10336 10332 10328 10325 10324 10321 10319 10317 10314 10310 10306 10302 10300 10299 10297 10294 10290 10286 10283 10280 10277 10274 10271 10269 10265 10262 10260 10257 10254 10252 10249 10247 10245 10242 10240 10239 10237 10235 10234 10232 10231 10230 10228 10227 10225 10224 10223 10222 10220 10219 10218 10217
10400 10399 10397 10395 10394 10392 10390 10389 10387 10385 10383 10381 10379 10377 10375 10374 10372 10369 10367 10365 10364 10361 10359 10356 10354 10352 10350 10347 10345 10342 10339 10337 10335 10334 10331 10327 10323 10320 10319 10315 10312 10310 10309 10305 10301 10296 10292 10290 10289 10287 10284 10280 10277 10274 10270 10267 10264 10262 10259 10256 10253 10250 10248 10245 10242 10240 10238 10236 10234 10232 10230 10229 10227 10225 10224 10222 10221 10220 10219 10217 10216 10215 10213 10212 10210 10210
10397 10395 10394 10392 10390 10389 10387 10385 10383 10382 10380 10378 10375 10374 10372 10370 10368 10365 10364 10362 10359 10357 10355 10352 10350 10347 10345 10343 10340 10337 10334 10332 10330 10328 10326 10322 10318 10315 10313 10310 10307 10304 10301 10299 10297 10292 10287 10283 10280 10279 10277 10274 10270 10267 10264 10262 10259 10255 10252 10249 10247 10244 10242 10239 10236 10234 10232 10230 10228 10225 10224 10222 10220 10219 10217 10215 10214 10212 10211 10210 10209 10207 10206 10205 10204 10202
10393 10392 10390 10388 10387 10385 10383 10381 10380 10378 10376 10374 10372 10370 10368 10366 10364 10362 10360 10358 10355 10353 10350 10348 10345 10343 10340 10338 10335 10333 10330 10327 10325 10322 10320 10317 10312 10309 10307 10304 10301 10297 10295 10292 10290 10287 10283 10279 10275 10272 10269 10268 10265 10262 10259 10256 10253 10250 10247 10244 10240 10237 10235 10233 10230 10228 10225 10224 10221 10219 10217 10215 10213 10212 10210 10208 10207 10205 10204 10203 10202 10200 10199 10197 10196 10195
10389 10388 10386 10384 10383 10381 10379 10377 10375 10374 10372 10370 10368 10366 10364 10362 10360 10358 10355 10354 10351 10349 10347 10344 10341 10339 10335 10333 10330 10327 10325 10323 10320 10318 10315 10311 10307 10304 10301 10298 10295 10292 10289 10285 10282 10279 10276 10273 10269 10266 10262 10260 10259 10257 10254 10250 10247 10244 10242 10239 10235 10232 10229 10227 10224 10222 10219 10217 10215 10213 10210 10209 10207 10205 10203 10201 10200 10198 10197 10195 10194 10193 10192 10190 10189 10188
10386 10384 10382 10380 10379 10377 10375 10374 10372 10370 10368 10366 10364 10362 10360 10358 10356 10354 10351 10349 10347 10345 10342 10340 10337 10334 10332 10329 10325 10322 10320 10317 10315 10312 10310 10306 10302 10299 10295 10292 10289 10287 10283 10279 10276 10273 10269 10265 10263 10260 10256 10252 10250 10249 10248 10246 10243 10240 10237 10234 10230 10227 10224 10221 10219 10216 10214 10211 10209 10207 10204 10202 10200 10198 10196 10194 10192 10191 10190 10189 10187 10186 10185 10184 10182 10181
10382 10380 10379 10377 10375 10374 10371 10370 10368 10366 10364 10362 10360 10358 10356 10354 10352 10349 10347 10345 10342 10340 10337 10335 10333 10330 10327 10324 10321 10318 10315 10312 10310 10307 10304 10301 10297 10294 10290 10286 10284 10281 10277 10273 10270 10267 10264 10259 10256 10253 10250 10247 10244 10241 10240 10239 10237 10235 10232 10229 10225 10222 10219 10215 10213 10210 10207 10205 10203 10200 10198 10195 10194 10191 10189 10187 10185 10184 10182 10181 10180 10179 10178 10177 10175 10175
10379 10377 10375 10374 10372 10370 10367 10365 10364 10362 10360 10358 10356 10354 10352 10350 10347 10345 10343 10340 10338 10335 10333 10330 10328 10325 10322 10320 10317 10314 10310 10307 10305 10302 10299 10295 10292 10289 10285 10281 10278 10275 10272 10269 10264 10261 10257 10254 10250 10246 10244 10241 10239 10235 10232 10231 10230 10229 10227 10224 10221 10217 10214 10210 10207 10205 10202 10199 10197 10194 10192 10189 10187 10185 10182 10180 10179 10177 10175 10174 10173 10172 10171 10170 10169 10168
10375 10374 10372 10370 10368 10366 10364 10362 10360 10358 10356 10354 10352 10350 10347 10345 10343 10340 10338 10335 10333 10330 10328 10325 10323 10320 10317 10315 10312 10309 10306 10303 10299 10296 10294 10290 10287 10284 10280 10275 10272 10269 10267 10264 10260 10255 10252 10248 10244 10240 10237 10234 10232 10230 10227 10225 10223 10222 10220 10219 10216 10214 10210 10206 10203 10200 10197 10194 10191 10189 10186 10184 10181 10179 10176 10174 10172 10170 10169 10168 10167 10165 10164 10163 10162 10160
10372 10370 10368 10366 10364 10362 10360 10358 10356 10354 10352 10350 10347 10345 10343 10340 10339 10336 10334 10331 10329 10326 10323 10320 10318 10315 10312 10309 10307 10304 10300 10297 10294 10291 10288 10285 10282 10279 10275 10270 10267 10264 10260 10258 10254 10250 10247 10243 10239 10235 10232 10228 10225 10223 10221 10219 10217 10215 10214 10212 10210 10208 10205 10202 10199 10195 10192 10189 10185 10183 10180 10178 10175 10173 10170 10168 10166 10164 10162 10161 10160 10159 10157 10155 10154 10154
10367 10366 10364 10362 10360 10359 10356 10354 10352 10350 10348 10345 10343 10341 10339 10336 10334 10331 10329 10326 10324 10321 10319 10315 10313 10310 10307 10305 10302 10299 10295 10292 10289 10285 10282 10279 10276 10272 10269 10265 10262 10258 10254 10251 10248 10245 10242 10237 10234 10230 10227 10224 10220 10217 10215 10213 10211 10210 10208 10205 10203 10201 10199 10197 10194 10190 10187 10184 10180 10177 10175 10172 10170 10167 10165 10162 10160 10159 10157 10155 10154 10152 10151 10149 10148 10147
10364 10362 10360 10358 10356 10354 10352 10350 10348 10346 10344 10341 10339 10336 10334 10332 10329 10326 10324 10321 10319 10316 10314 10310 10308 10305 10302 10300 10297 10294 10290 10287 10284 10280 10277 10274 10270 10267 10263 10260 10256 10252 10249 10245 10242 10239 10235 10232 10228 10224 10222 10219 10215 10212 10210 10207 10206 10204 10202 10199 10197 10195 10193 10191 10189 10185 10182 10179 10176 10173 10170 10167 10164 10162 10159 10157 10155 10154 10152 10150 10148 10146 10145 10144 10142 10140
10359 10357 10355 10354 10352 10350 10348 10346 10344 10342 10339 10337 10334 10332 10329 10327 10324 10322 10319 10316 10313 10310 10308 10305 10302 10299 10296 10294 10291 10289 10285 10282 10278 10275 10271 10267 10264 10260 10257 10254 10250 10247 10243 10239 10235 10232 10229 10226 10222 10219 10216 10213 10210 10207 10204 10202 10200 10199 10197 10194 10191 10188 10186 10185 10183 10180 10177 10174 10171 10169 10165 10162 10159 10157 10154 10152 10150 10149 10147 10145 10143 10141 10139 10138 10136 10134
10355 10354 10352 10350 10348 10346 10344 10342 10339 10337 10335 10332 10330 10327 10325 10322 10320 10317 10314 10311 10308 10305 10303 10300 10297 10294 10291 10288 10285 10282 10279 10277 10273 10269 10265 10262 10259 10255 10251 10247 10244 10240 10237 10233 10229 10225 10222 10220 10217 10214 10210 10208 10205 10202 10199 10197 10194 10192 10190 10188 10185 10182 10179 10177 10175 10174 10172 10169 10166 10164 10160 10157 10155 10152 10150 10147 10145 10144 10142 10140 10139 10137 10135 10133 10131 10129
10351 10349 10347 10345 10344 10342 10339 10337 10335 10333 10330 10328 10325 10322 10320 10318 10315 10312 10309 10306 10304 10300 10298 10295 10292 10289 10286 10283 10280 10277 10274 10270 10267 10264 10260 10257 10254 10249 10245 10242 10237 10234 10231 10227 10224 10219 10215 10212 10210 10208 10205 10203 10200 10197 10194 10192 10189 10187 10184 10182 10180 10177 10174 10171 10169 10167 10165 10162 10160 10158 10155 10152 10150 10147 10145 10143 10141 10139 10137 10136 10134 10132 10130 10129 10127 10125
10347 10345 10343 10341 10339 10337 10335 10333 10330 10328 10325 10323 10320 10318 10315 10313 10310 10307 10304 10301 10298 10295 10293 10290 10287 10284 10280 10277 10274 10271 10268 10265 10262 10259 10255 10252 10249 10245 10240 10237 10232 10229 10225 10221 10218 10214 10210 10207 10204 10201 10199 10197 10195 10192 10190 10187 10184 10181 10179 10177 10174 10171 10168 10166 10164 10160 10158 10156 10154 10152 10150 10147 10145 10142 10140 10139 10137 10135 10134 10132 10130 10129 10127 10125 10122 10120
10342 10340 10339 10337 10335 10332 10330 10328 10326 10324 10321 10319 10316 10313 10310 10308 10305 10302 10299 10297 10294 10290 10287 10285 10282 10279 10275 10272 10269 10266 10262 10259 10256 10253 10250 10247 10243 10239 10235 10232 10227 10224 10219 10215 10212 10209 10205 10202 10199 10196 10193 10190 10189 10187 10185 10183 10179 10176 10174 10171 10169 10165 10162 10160 10158 10155 10152 10150 10148 10145 10144 10142 10140 10137 10135 10134 10132 10130 10129 10128 10126 10124 10123 10121 10119 10117
10339 10336 10334 10332 10330 10328 10325 10324 10321 10319 10316 10314 10311 10309 10305 10303 10300 10297 10294 10291 10289 10285 10282 10279 10276 10273 10270 10267 10264 10260 10257 10254 10250 10247 10244 10241 10238 10234 10230 10226 10222 10218 10214 10210 10206 10202 10199 10197 10194 10191 10189 10185 10183 10180 10179 10177 10175 10172 10169 10165 10163 10160 10157 10154 10152 10150 10147 10144 10142 10140 10138 10136 10135 10133 10131 10129 10127 10126 10125 10124 10122 10121 10119 10117 10115 10112
10334 10332 10330 10328 10325 10323 10321 10319 10317 10314 10311 10309 10306 10304 10300 10298 10295 10292 10289 10285 10283 10280 10277 10274 10270 10267 10264 10261 10258 10255 10252 10249 10245 10242 10239 10235 10232 10229 10225 10221 10217 10213 10209 10205 10201 10197 10194 10191 10189 10187 10184 10181 10178 10175 10173 10172 10169 10167 10164 10160 10157 10155 10152 10149 10147 10144 10142 10139 10137 10135 10133 10131 10129 10128 10126 10124 10123 10122 10120 10120 10119 10117 10115 10113 10110 10108
10330 10327 10325 10323 10321 10319 10316 10314 10312 10309 10307 10304 10301 10298 10295 10292 10290 10287 10284 10280 10277 10274 10271 10268 10265 10262 10259 10255 10252 10249 10246 10243 10240 10236 10233 10230 10227 10223 10219 10215 10212 10207 10203 10199 10195 10192 10189 10185 10184 10182 10180 10178 10174 10170 10168 10166 10164 10161 10158 10155 10152 10149 10146 10144 10141 10139 10136 10134 10131 10129 10128 10127 10125 10124 10122 10120 10119 10117 10116 10115 10114 10113 10111 10109 10107 10104
10325 10323 10321 10319 10317 10314 10312 10309 10307 10304 10302 10299 10296 10293 10290 10287 10284 10282 10279 10275 10272 10269 10266 10263 10259 10256 10252 10249 10247 10244 10240 10237 10234 10230 10228 10225 10222 10217 10214 10210 10206 10202 10197 10193 10190 10186 10183 10179 10177 10176 10175 10174 10172 10167 10164 10160 10159 10156 10153 10150 10147 10144 10141 10139 10135 10134 10131 10129 10126 10125 10123 10122 10120 10119 10117 10115 10114 10113 10112 10112 10110 10109 10107 10105 10103 10100
10320 10319 10316 10314 10312 10309 10307 10305 10302 10299 10297 10294 10291 10288 10285 10282 10279 10276 10273 10270 10267 10264 10260 10257 10254 10251 10247 10244 10240 10238 10235 10232 10229 10225 10222 10219 10216 10212 10209 10205 10201 10197 10192 10187 10184 10180 10177 10174 10170 10168 10168 10168 10167 10164 10160 10157 10154 10150 10147 10145 10142 10139 10136 10133 10130 10128 10125 10123 10121 10120 10119 10117 10116 10115 10114 10112 10110 10109 10108 10107 10107 10105 10104 10102 10099 10097